Wind_Speed
5 7 8 7 7 8 4 0 4 7 8 8 9 8 8 9 10 11 11 10 10 10 11 10 10 10 10 10 10 10 10 10 10 8 8 8 8 8 8 7 7 7 8 8 8 8 9 8 8
6 6 5 5 6 4 1 4 7 10 11 11 10 9 10 10 10 11 11 11 11 11 12 12 11 11 11 11 11 11 11 11 10 10 10 10 9 9 9 9 8 8 9 9 9 9 10 10 10
5 4 4 5 5 2 3 8 10 12 12 11 11 10 11 11 12 12 12 13 13 13 13 12 12 12 12 12 12 12 12 12 12 12 12 11 11 11 10 10 10 10 10 10 10 10 10 10 10
4 4 5 5 5 3 6 8 12 12 13 13 13 13 13 13 13 13 13 14 14 13 13 13 13 13 13 13 13 13 13 13 13 13 12 12 12 12 12 12 12 12 11 11 11 11 10 10 11
4 4 4 3 2 6 9 10 11 13 13 14 15 15 13 13 13 14 14 14 14 12 12 13 14 14 14 14 15 14 14 14 13 13 13 13 13 13 13 13 13 13 13 12 12 11 11 11 11
4 4 3 1 4 8 11 12 12 12 14 13 14 15 14 15 15 15 14 15 14 12 13 14 15 16 16 16 15 15 15 14 14 14 13 14 14 14 14 14 14 14 14 13 13 13 13 12 12
4 3 2 2 4 10 12 14 13 13 15 14 14 15 15 17 16 15 15 15 14 14 14 16 16 16 16 16 16 16 16 16 15 15 14 14 14 14 15 16 15 15 15 14 14 14 14 14 14
4 2 2 4 6 10 13 14 14 14 15 14 15 15 16 17 17 17 16 16 16 16 16 18 17 17 16 16 17 17 18 17 16 16 16 16 15 15 16 16 17 17 16 16 16 16 16 15 15
3 2 4 5 7 10 13 13 14 15 15 15 15 16 17 18 17 17 17 18 18 18 18 18 18 17 18 18 18 18 18 18 17 17 18 17 17 16 17 17 17 17 17 17 17 17 17 17 17
4 5 5 8 10 10 11 13 14 15 14 16 16 17 18 19 19 18 19 19 19 19 19 19 19 18 19 20 20 19 19 18 18 18 18 18 18 17 17 18 18 18 18 18 18 18 18 18 19
8 10 9 9 11 11 12 13 14 15 16 16 16 17 19 18 19 19 19 19 20 20 20 20 20 20 21 20 20 19 19 20 19 19 19 18 19 19 19 19 19 20 20 20 20 20 19 20 20
10 12 13 11 12 12 12 14 15 16 16 16 17 17 18 19 19 19 20 20 21 21 21 21 21 20 21 21 20 20 20 20 19 19 19 19 20 20 20 20 20 21 21 20 20 20 20 20 21
10 12 13 14 14 13 13 14 15 16 16 18 19 19 19 19 19 18 19 20 20 21 21 21 21 21 21 21 21 21 20 20 20 21 21 21 20 20 20 20 20 20 20 20 19 19 19 20 21
10 11 12 13 13 15 16 16 15 17 17 18 19 20 20 20 20 20 19 19 20 21 21 21 21 21 21 21 21 21 21 21 20 21 20 19 18 19 19 20 20 20 20 19 19 19 19 19 20
9 10 11 12 14 16 18 17 18 18 19 19 20 21 20 20 20 20 20 20 21 21 21 21 21 21 21 22 22 21 22 22 21 20 19 19 19 19 20 20 20 20 20 19 19 20 20 19 20
9 11 12 14 16 17 19 18 20 19 19 19 20 22 21 21 21 21 21 21 21 21 21 21 21 22 22 23 23 23 22 21 21 21 21 21 20 20 20 21 21 21 20 20 20 21 21 21 20
11 13 12 14 18 18 18 18 21 20 17 19 21 22 22 22 22 21 21 21 21 21 21 21 22 22 23 23 22 22 21 20 21 21 21 22 21 21 21 22 21 21 20 20 21 21 21 23 22
13 13 13 14 18 18 19 18 21 20 19 19 21 22 22 22 22 21 22 22 22 22 21 21 21 22 22 23 22 21 21 21 22 22 22 22 22 22 22 22 22 22 21 21 22 22 22 23 23
14 14 13 14 17 17 19 18 19 22 20 19 21 21 21 22 22 22 22 23 22 22 22 22 22 23 23 23 23 23 23 23 23 23 23 23 23 23 23 23 23 23 22 22 23 23 23 23 24
13 14 13 14 16 19 18 18 19 21 21 20 20 21 21 22 23 23 23 24 23 23 23 23 23 23 23 24 24 24 25 25 25 25 24 24 24 23 24 24 24 24 23 22 22 22 22 22 24
13 14 13 13 15 16 17 19 20 21 21 21 20 21 22 23 24 24 24 24 24 24 24 24 24 24 25 25 25 26 26 26 26 25 25 25 25 24 24 24 24 24 23 23 23 23 22 22 22
14 14 14 14 15 14 15 19 20 21 21 21 21 22 22 24 25 25 25 25 24 24 24 25 25 25 26 26 26 26 26 25 25 24 24 25 25 25 25 25 25 25 24 24 24 24 23 23 22
13 14 14 13 14 15 16 18 19 21 21 22 23 22 23 24 25 26 25 24 25 25 26 26 26 26 26 26 25 25 25 24 24 23 24 24 25 25 25 25 25 25 24 24 24 24 24 23 23
11 12 11 11 14 17 17 17 19 22 21 23 24 24 23 24 26 26 25 25 25 26 26 26 26 26 25 25 24 24 24 24 23 23 23 24 25 25 25 24 24 24 24 24 25 25 24 24 24
12 10 11 12 15 17 17 20 22 21 22 24 24 24 23 24 26 26 26 26 25 26 25 25 25 26 26 25 25 25 24 24 24 24 24 24 24 24 24 24 24 24 25 25 25 25 25 25 25
13 12 12 14 14 16 17 20 22 23 21 22 23 24 24 25 26 27 26 26 25 25 25 26 26 26 26 25 25 24 23 23 24 24 24 24 24 24 23 24 24 25 25 26 25 25 25 25 25
12 12 13 15 14 16 18 19 21 21 21 21 21 23 25 26 27 26 26 26 26 25 26 27 27 27 26 25 25 24 23 23 23 23 24 24 24 23 24 24 24 25 25 26 25 25 25 25 25
13 14 14 15 16 16 16 19 21 21 21 21 22 24 25 26 27 26 26 26 27 27 27 27 27 26 26 25 25 24 24 23 23 23 24 23 23 23 23 24 25 25 25 25 25 26 26 25 25
14 14 15 16 16 17 17 19 20 20 20 22 22 24 26 26 26 26 27 27 28 28 28 27 25 25 25 25 25 25 24 24 23 24 23 23 23 24 24 24 25 24 24 24 25 25 25 25 24
15 15 15 16 16 16 18 20 21 22 22 23 22 23 24 25 25 26 26 27 27 27 27 26 26 25 25 25 25 25 24 24 23 23 23 23 24 24 25 25 24 24 23 24 24 24 24 24 24
Wind_Direction
97 103 105 107 102 80 75 227 271 272 278 287 290 293 296 301 302 308 313 310 314 317 318 320 316 314 312 308 302 300 299 297 293 288 288 287 287 281 276 272 271 271 271 270 269 268 262 258 257
98 109 114 104 87 76 338 268 279 285 289 293 295 300 301 307 307 305 309 312 313 315 313 313 313 310 307 306 303 299 297 296 289 287 286 284 283 281 277 272 272 272 271 271 273 270 264 261 258
108 109 104 83 57 22 307 281 291 291 295 296 298 294 299 308 309 309 308 308 313 313 312 313 314 312 309 306 302 297 295 293 291 287 286 285 280 279 277 273 272 271 271 271 270 268 266 263 258
114 120 96 66 41 335 294 287 296 296 298 298 298 297 299 307 309 310 309 308 312 312 316 320 317 313 311 309 306 300 295 292 288 286 284 283 280 279 278 276 274 271 270 270 270 267 267 266 260
129 115 67 36 344 291 285 283 293 297 301 301 299 298 301 305 306 306 307 308 312 315 318 319 317 314 310 307 304 300 297 294 289 286 284 284 282 280 279 278 275 273 271 270 271 270 268 268 264
142 93 25 339 281 283 284 290 293 296 298 297 297 298 299 305 303 303 306 308 314 316 317 316 314 311 309 307 303 300 297 294 291 287 287 287 286 282 279 278 277 274 272 271 272 271 268 266 264
148 98 348 311 273 274 277 285 291 293 294 292 296 297 301 305 308 307 305 306 312 311 312 312 312 310 308 306 303 299 297 293 292 291 290 288 287 283 281 278 277 275 273 272 273 272 269 266 264
154 132 324 280 263 274 285 291 292 293 289 298 302 300 303 306 309 307 305 308 309 309 310 311 310 309 308 306 303 300 297 294 291 290 289 287 286 285 283 280 277 277 276 274 273 273 270 267 265
169 276 293 280 280 282 288 293 294 294 293 301 303 303 306 308 307 306 305 305 305 308 309 311 309 308 309 307 304 300 297 293 291 291 288 286 286 285 283 282 277 275 276 277 275 273 271 268 264
229 261 274 271 279 294 294 297 293 295 292 297 302 305 307 308 306 303 304 305 306 309 308 308 309 308 307 306 304 301 297 293 291 292 289 286 285 285 284 284 280 277 277 277 276 273 271 269 265
246 256 273 283 289 295 295 293 293 295 294 299 301 302 304 307 307 304 303 305 306 307 306 305 307 307 305 305 306 303 300 297 296 294 291 289 286 284 283 283 280 277 277 277 276 273 272 270 266
261 266 270 285 286 293 296 294 296 294 297 299 298 303 306 306 306 305 304 306 307 307 306 306 306 308 307 305 305 304 300 299 299 298 295 291 287 286 284 284 280 278 277 278 276 273 272 271 267
256 266 271 279 286 291 290 295 297 299 300 301 302 304 306 306 305 305 305 307 307 307 308 307 306 306 306 307 304 302 302 301 301 300 298 293 291 290 288 288 285 281 279 279 277 273 271 269 267
251 264 274 283 290 297 296 296 298 301 303 304 304 305 305 304 304 304 305 308 308 307 306 307 307 306 305 305 303 302 305 307 304 302 302 299 295 291 289 289 288 287 285 282 279 276 274 271 268
263 273 280 280 286 291 295 300 298 300 299 302 307 308 305 304 306 305 304 305 306 306 306 306 305 305 306 305 303 301 302 303 304 302 302 301 297 293 291 290 289 288 285 285 282 275 272 271 269
276 281 284 283 284 286 293 297 294 301 302 304 307 309 307 307 307 306 305 306 307 305 305 304 304 304 304 304 303 301 300 302 301 301 300 298 296 292 290 290 290 290 286 283 282 278 272 269 268
272 268 274 280 282 282 287 291 293 298 301 304 306 308 310 309 308 308 307 306 307 307 305 305 305 304 304 303 301 299 297 301 301 300 299 298 297 294 293 291 290 289 288 285 282 280 276 270 267
262 263 264 268 278 283 286 286 292 300 304 303 305 307 309 310 309 309 308 308 308 308 307 305 305 305 304 304 301 298 297 299 300 299 299 298 297 296 294 291 289 288 287 285 283 281 276 272 269
259 262 265 272 280 282 283 287 290 298 302 303 306 308 309 309 310 309 308 308 308 307 308 306 305 305 305 305 304 299 297 295 295 295 297 296 295 293 292 290 288 287 286 284 284 283 279 275 270
260 263 266 270 278 281 286 291 294 294 301 304 308 308 307 308 309 309 308 308 307 307 307 308 307 305 306 306 305 300 297 294 292 292 293 294 294 292 290 289 287 286 285 284 285 285 282 278 273
260 265 269 271 276 281 290 292 294 297 302 305 305 307 309 310 311 310 310 310 308 308 307 308 309 309 307 305 304 302 299 296 292 292 292 294 292 290 289 286 285 285 285 285 285 285 283 280 275
260 268 271 273 282 285 286 286 292 295 301 304 305 306 309 309 310 311 310 309 308 307 307 308 308 308 308 307 304 303 301 298 295 293 292 293 292 291 290 287 284 284 284 284 284 283 283 281 278
261 264 269 279 290 288 284 283 290 297 299 303 306 307 309 312 312 313 312 310 308 307 308 308 308 309 309 308 306 305 303 302 299 295 294 294 293 293 290 287 283 282 283 283 283 282 281 281 278
262 263 272 289 294 289 289 288 289 295 296 303 306 308 311 313 313 315 315 314 312 310 310 310 310 312 312 310 308 307 305 304 302 300 298 296 294 292 289 287 284 282 282 283 283 282 281 281 279
266 270 273 277 280 284 292 290 287 293 295 300 303 306 311 313 314 315 316 315 314 313 312 312 312 313 313 312 310 308 306 304 303 301 299 297 295 291 288 288 285 283 282 282 282 282 281 279 278
265 268 270 275 277 284 285 281 285 290 294 298 301 304 309 311 313 315 315 315 315 314 314 314 313 313 312 311 311 310 309 306 303 301 298 297 295 292 289 288 285 284 283 282 282 282 280 278 276
263 269 272 279 280 278 278 281 283 286 293 296 302 304 308 311 313 315 316 316 316 315 315 314 313 313 312 310 311 310 309 307 305 303 301 298 295 292 289 289 285 284 282 281 279 280 280 279 274
271 269 273 274 275 273 279 282 286 290 292 297 302 303 308 310 314 315 315 316 317 317 315 313 311 313 313 312 312 311 309 307 306 305 301 298 296 294 291 289 288 285 282 280 279 279 278 277 274
275 271 270 273 274 277 280 286 292 294 298 299 300 304 307 312 315 315 315 316 317 318 317 316 315 316 315 314 312 311 309 308 308 307 304 300 298 295 292 291 291 287 283 281 279 279 278 276 273
274 275 271 272 272 276 280 286 293 296 297 298 302 307 312 315 316 315 315 317 317 317 318 317 316 315 315 314 313 312 311 310 309 309 305 303 300 297 294 292 292 288 284 283 283 282 280 276 272
Height
5899 5899 5900 5901 5902 5901 5903 5904 5902 5901 5900 5899 5898 5897 5896 5896 5895 5896 5892 5890 5890 5889 5888 5887 5886 5886 5885 5884 5883 5882 5882 5881 5880 5879 5878 5878 5877 5877 5877 5876 5876 5876 5876 5876 5875 5875 5875 5875 5875
5899 5900 5901 5901 5900 5902 5904 5904 5901 5899 5898 5897 5896 5896 5894 5894 5893 5892 5890 5889 5888 5888 5887 5886 5885 5884 5883 5882 5881 5880 5879 5878 5877 5876 5876 5876 5875 5875 5875 5875 5875 5874 5874 5874 5874 5874 5873 5873 5874
5899 5900 5901 5900 5901 5904 5904 5903 5900 5898 5897 5896 5895 5894 5893 5892 5891 5890 5888 5887 5886 5886 5884 5883 5882 5882 5881 5880 5879 5878 5877 5876 5875 5874 5874 5874 5873 5873 5873 5873 5873 5872 5872 5872 5872 5872 5872 5871 5871
5899 5900 5901 5901 5902 5904 5904 5901 5898 5897 5896 5894 5893 5892 5891 5891 5889 5888 5887 5886 5885 5884 5882 5881 5880 5879 5878 5878 5876 5875 5874 5874 5873 5872 5872 5871 5871 5871 5871 5870 5870 5870 5870 5870 5870 5869 5869 5869 5869
5898 5899 5900 5900 5903 5904 5902 5900 5898 5896 5895 5893 5892 5890 5888 5888 5888 5886 5884 5883 5882 5882 5880 5879 5878 5877 5876 5875 5874 5873 5872 5871 5870 5870 5869 5869 5869 5868 5868 5868 5868 5867 5867 5867 5867 5867 5867 5867 5867
5898 5898 5899 5901 5902 5903 5900 5898 5897 5895 5894 5892 5890 5889 5887 5886 5885 5884 5882 5881 5880 5879 5878 5877 5876 5874 5873 5872 5871 5870 5869 5868 5868 5867 5866 5866 5866 5866 5865 5865 5865 5865 5864 5864 5864 5864 5865 5865 5865
5898 5898 5899 5901 5903 5902 5900 5897 5895 5895 5893 5890 5889 5887 5885 5884 5883 5881 5880 5878 5878 5877 5876 5875 5873 5872 5870 5869 5868 5867 5866 5865 5865 5864 5863 5863 5863 5862 5862 5862 5862 5861 5861 5861 5861 5861 5862 5862 5862
5897 5898 5898 5900 5901 5899 5897 5895 5894 5893 5890 5888 5887 5885 5884 5882 5881 5879 5877 5876 5875 5875 5873 5872 5870 5869 5867 5866 5865 5863 5862 5861 5861 5860 5860 5860 5859 5859 5858 5858 5858 5858 5858 5858 5858 5858 5858 5858 5858
5896 5898 5898 5899 5899 5898 5895 5894 5893 5891 5888 5886 5885 5883 5882 5880 5879 5877 5876 5874 5873 5872 5870 5869 5867 5865 5864 5863 5861 5860 5859 5858 5857 5857 5856 5856 5856 5855 5855 5854 5854 5854 5854 5854 5854 5854 5854 5854 5854
5896 5897 5897 5897 5897 5895 5894 5892 5891 5889 5887 5886 5884 5882 5879 5878 5877 5875 5874 5872 5870 5869 5867 5865 5864 5862 5861 5859 5857 5856 5855 5854 5854 5853 5852 5852 5852 5851 5851 5850 5850 5849 5849 5849 5849 5849 5849 5850 5850
5895 5895 5895 5893 5893 5892 5892 5891 5889 5887 5885 5884 5882 5879 5877 5876 5874 5873 5871 5869 5868 5866 5864 5863 5861 5859 5857 5856 5853 5852 5851 5850 5849 5848 5848 5848 5847 5846 5846 5846 5845 5844 5844 5844 5844 5844 5845 5845 5846
5893 5893 5892 5892 5891 5890 5890 5888 5887 5884 5883 5881 5879 5877 5874 5873 5872 5870 5868 5866 5865 5863 5861 5859 5858 5856 5854 5852 5850 5849 5848 5846 5845 5844 5843 5843 5842 5842 5841 5841 5840 5840 5839 5839 5839 5839 5839 5840 5840
5891 5892 5891 5890 5889 5889 5887 5885 5884 5882 5880 5879 5877 5875 5872 5870 5869 5867 5865 5863 5862 5860 5858 5856 5854 5853 5850 5849 5847 5846 5843 5841 5841 5840 5839 5838 5837 5836 5836 5835 5835 5834 5834 5834 5834 5834 5834 5834 5835
5889 5889 5889 5888 5887 5886 5885 5884 5882 5880 5878 5876 5874 5872 5870 5868 5866 5864 5862 5860 5858 5856 5854 5853 5851 5849 5847 5845 5843 5842 5840 5837 5837 5836 5834 5833 5832 5832 5831 5831 5830 5830 5829 5829 5828 5828 5829 5829 5829
5886 5886 5885 5885 5885 5885 5884 5881 5879 5877 5875 5873 5871 5869 5867 5865 5862 5861 5859 5857 5855 5853 5851 5849 5847 5845 5843 5841 5839 5838 5836 5834 5833 5831 5830 5829 5827 5827 5826 5826 5825 5825 5824 5824 5823 5823 5823 5824 5824
5883 5883 5884 5884 5883 5882 5883 5880 5877 5874 5872 5869 5868 5866 5863 5862 5859 5858 5856 5854 5851 5849 5847 5845 5843 5841 5839 5837 5835 5833 5831 5830 5828 5827 5826 5824 5823 5822 5821 5820 5820 5819 5819 5819 5818 5818 5818 5818 5819
5882 5883 5884 5884 5881 5880 5880 5877 5874 5871 5869 5867 5865 5863 5861 5858 5856 5854 5852 5850 5847 5845 5843 5841 5839 5837 5835 5832 5830 5828 5827 5825 5824 5823 5821 5820 5818 5817 5816 5815 5814 5813 5813 5813 5813 5813 5812 5812 5812
5881 5881 5882 5882 5879 5878 5876 5874 5871 5868 5866 5865 5862 5860 5858 5855 5853 5851 5848 5846 5843 5841 5839 5837 5835 5833 5830 5828 5826 5824 5822 5821 5819 5817 5816 5814 5813 5812 5811 5810 5809 5808 5808 5807 5807 5807 5806 5806 5806
5878 5878 5879 5880 5877 5876 5874 5872 5869 5866 5863 5861 5859 5857 5854 5852 5850 5847 5845 5842 5840 5838 5835 5833 5831 5828 5826 5823 5821 5819 5817 5815 5813 5812 5810 5809 5807 5806 5805 5804 5803 5802 5802 5801 5801 5800 5800 5800 5800
5874 5875 5876 5877 5875 5873 5870 5868 5866 5863 5861 5858 5856 5854 5852 5849 5847 5844 5841 5839 5836 5834 5831 5829 5826 5823 5821 5818 5815 5813 5811 5809 5807 5806 5804 5803 5801 5800 5799 5798 5797 5796 5796 5796 5795 5794 5794 5793 5793
5871 5872 5872 5872 5871 5869 5867 5864 5862 5859 5858 5856 5853 5850 5849 5846 5843 5841 5838 5835 5832 5830 5827 5824 5821 5818 5816 5813 5810 5807 5804 5802 5801 5799 5798 5797 5795 5794 5793 5792 5791 5790 5790 5790 5789 5788 5787 5787 5787
5868 5869 5869 5868 5866 5864 5864 5861 5859 5855 5854 5852 5849 5847 5845 5843 5840 5837 5834 5831 5828 5826 5823 5820 5817 5814 5810 5807 5804 5801 5798 5796 5794 5793 5792 5790 5789 5787 5786 5785 5785 5784 5783 5783 5783 5782 5781 5781 5781
5864 5866 5865 5864 5863 5861 5860 5858 5857 5852 5850 5849 5847 5844 5841 5839 5836 5833 5830 5827 5824 5821 5818 5815 5812 5808 5804 5801 5798 5795 5792 5790 5788 5786 5785 5784 5782 5781 5780 5778 5778 5777 5777 5776 5776 5775 5774 5774 5774
5861 5862 5862 5861 5860 5859 5858 5856 5855 5851 5848 5846 5844 5841 5838 5836 5832 5829 5826 5823 5819 5816 5813 5810 5807 5803 5799 5795 5792 5790 5787 5784 5782 5780 5779 5777 5776 5774 5773 5772 5771 5770 5770 5769 5769 5768 5767 5767 5767
5859 5859 5860 5859 5858 5858 5857 5855 5852 5849 5846 5844 5841 5839 5835 5833 5829 5825 5822 5818 5815 5812 5808 5805 5801 5798 5794 5790 5787 5784 5781 5778 5776 5774 5772 5771 5769 5767 5766 5765 5764 5763 5763 5762 5761 5760 5760 5760 5760
5856 5857 5857 5856 5855 5856 5854 5851 5850 5846 5843 5841 5838 5836 5833 5829 5826 5821 5818 5814 5811 5807 5804 5800 5796 5793 5789 5785 5782 5778 5775 5772 5770 5768 5766 5764 5762 5761 5759 5758 5757 5756 5755 5754 5753 5753 5752 5752 5752
5853 5853 5854 5853 5852 5852 5850 5847 5844 5842 5840 5837 5835 5832 5829 5825 5822 5818 5814 5810 5807 5803 5799 5795 5791 5787 5783 5780 5777 5773 5770 5767 5764 5762 5759 5757 5755 5754 5752 5751 5750 5749 5747 5747 5746 5745 5745 5744 5744
5850 5850 5850 5849 5848 5847 5846 5844 5839 5837 5835 5832 5830 5828 5824 5821 5817 5813 5809 5806 5802 5798 5794 5789 5785 5782 5778 5774 5771 5768 5765 5761 5759 5756 5753 5751 5748 5747 5745 5744 5743 5741 5740 5739 5739 5738 5737 5737 5737
5847 5847 5846 5845 5844 5843 5842 5841 5835 5833 5831 5828 5826 5822 5820 5816 5812 5809 5805 5801 5797 5794 5789 5784 5780 5776 5772 5769 5766 5762 5759 5755 5752 5750 5747 5745 5743 5741 5739 5737 5735 5734 5733 5732 5731 5730 5729 5728 5729
5843 5843 5842 5841 5840 5839 5838 5838 5832 5830 5827 5824 5821 5818 5815 5812 5808 5805 5801 5797 5793 5788 5784 5779 5774 5771 5768 5764 5761 5757 5753 5750 5747 5744 5741 5739 5737 5734 5732 5730 5728 5727 5726 5725 5723 5722 5722 5721 5721